Location: Unspecified
(0.0000°N, 0.0000°E)
Time: 06:10:30
(UTC+00:00)

Vanguard 1 - All Passes

Search period start: 24 March 2017 00:00
Search period end: 03 April 2017 00:00
Orbit: 654 x 3830 km, 34.2° (Epoch: 22 March)

Date Brightness Start Highest point End Pass type
(mag) Time Alt. Az. Time Alt. Az. Time Alt. Az.
24 Mar - 01:18:49 10° SSW 01:34:21 22° SSE 01:46:01 10° ESE visible
24 Mar - 03:46:33 10° SW 04:03:03 45° SSE 04:12:20 10° E visible
24 Mar - 06:13:52 10° WSW 06:25:55 56° NW 06:32:29 10° NE daylight
24 Mar - 15:50:56 10° NNW 15:58:33 40° NE 16:11:56 10° ESE daylight
24 Mar - 18:10:10 10° WNW 18:21:19 66° SSW 18:41:32 10° SE visible
24 Mar - 20:35:18 10° WSW 20:49:35 30° SSW 21:08:36 10° SSE visible
24 Mar - 23:08:57 10° SW 23:23:49 20° S 23:38:00 10° SE visible
25 Mar - 01:40:52 10° SSW 01:57:37 26° SSE 02:09:24 10° ESE visible
25 Mar - 04:08:03 10° SW 04:25:00 59° SSE 04:33:59 10° ENE visible
25 Mar - 06:36:28 10° WSW 06:46:49 37° NW 06:52:57 10° NNE daylight
25 Mar - 16:11:28 10° NW 16:19:33 57° NE 16:34:44 10° ESE daylight
25 Mar - 18:31:49 10° WNW 18:43:17 51° SSW 19:03:08 10° SE visible
25 Mar - 20:58:48 10° WSW 21:12:54 25° SSW 21:30:30 10° SSE visible
25 Mar - 23:32:47 10° SW 23:48:02 20° S 00:01:49 10° SE visible
26 Mar - 02:02:33 10° SW 02:20:32 32° SSE 02:32:20 10° E visible
26 Mar - 04:29:43 10° SW 04:46:37 78° SE 04:55:20 10° ENE visible
26 Mar - 06:59:42 10° W 07:07:42 24° NW 07:13:02 10° N daylight
26 Mar - 14:16:14 10° NNE 14:19:56 14° NE 14:24:38 10° ENE daylight
26 Mar - 16:32:14 10° NW 16:40:40 79° NE 16:57:03 10° SE daylight
26 Mar - 18:53:49 10° W 19:05:33 41° SSW 19:24:39 10° SE visible
26 Mar - 21:22:44 10° SW 21:36:36 22° S 21:52:52 10° SSE visible
26 Mar - 23:55:51 10° SW 00:12:04 22° S 00:25:53 10° SE visible
27 Mar - 02:24:06 10° SW 02:43:06 40° SSE 02:54:47 10° E visible
27 Mar - 04:51:40 10° SW 05:07:58 79° NW 05:16:22 10° NE visible
27 Mar - 07:24:03 10° WNW 07:28:42 14° NW 07:32:21 10° NNW daylight
27 Mar - 14:35:34 10° N 14:40:55 24° NE 14:48:58 10° E daylight
27 Mar - 16:53:16 10° WNW 17:02:01 78° SW 17:19:00 10° SE daylight
27 Mar - 19:16:16 10° W 19:28:08 33° SSW 19:46:11 10° SE visible
27 Mar - 21:46:49 10° SW 22:00:38 20° S 22:15:54 10° SE visible
28 Mar - 00:18:13 10° SSW 00:35:46 25° SSE 00:49:49 10° ESE visible
28 Mar - 02:45:36 10° SW 03:05:23 51° SSE 03:16:48 10° ENE visible
28 Mar - 05:13:59 10° WSW 05:29:06 57° NW 05:37:09 10° NE visible
28 Mar - 14:55:39 10° NNW 15:01:48 37° NE 15:12:14 10° ESE daylight
28 Mar - 17:14:36 10° WNW 17:23:39 59° SSW 17:40:41 10° SE daylight
28 Mar - 19:39:12 10° WSW 19:51:03 27° SSW 20:07:53 10° SSE visible
28 Mar - 22:10:39 10° SW 22:24:51 20° S 22:39:43 10° SE visible
29 Mar - 00:40:08 10° SSW 00:59:05 30° SSE 01:13:19 10° ESE visible
29 Mar - 03:07:12 10° SW 03:27:21 65° SSE 03:38:27 10° ENE visible
29 Mar - 05:36:47 10° WSW 05:50:05 40° NW 05:57:39 10° NNE visible
29 Mar - 15:16:07 10° NW 15:22:43 56° NE 15:34:50 10° ESE daylight
29 Mar - 17:36:15 10° W 17:45:35 45° SSW 18:02:11 10° SE daylight
29 Mar - 20:02:35 10° WSW 20:14:19 22° SSW 20:29:55 10° SSE visible
29 Mar - 22:33:53 10° SW 22:49:03 21° S 23:04:05 10° SE visible
30 Mar - 01:01:45 10° SW 01:22:02 37° SSE 01:36:18 10° E visible
30 Mar - 03:28:59 10° SW 03:49:02 83° SE 03:59:45 10° ENE visible
30 Mar - 06:00:12 10° W 06:11:03 28° NW 06:17:52 10° NNE daylight
30 Mar - 13:21:54 10° NNE 13:23:39 11° NE 13:25:36 10° ENE daylight
30 Mar - 15:36:54 10° NW 15:43:47 82° NE 15:56:57 10° SE daylight
30 Mar - 17:58:18 10° W 18:07:48 35° SSW 18:23:36 10° SE visible
30 Mar - 20:26:17 10° SW 20:37:57 20° S 20:52:33 10° SE visible
30 Mar - 22:56:26 10° SSW 23:13:03 23° SSE 23:28:36 10° ESE visible
31 Mar - 01:23:15 10° SW 01:44:38 45° SSE 01:58:47 10° E visible
31 Mar - 03:51:02 10° WSW 04:10:28 77° NW 04:20:48 10° NE visible
31 Mar - 06:24:31 10° W 06:32:08 18° NW 06:37:35 10° N daylight
31 Mar - 13:40:28 10° N 13:44:38 20° NE 13:50:20 10° E daylight
31 Mar - 15:57:58 10° WNW 16:05:05 71° SW 16:18:44 10° SE daylight
31 Mar - 18:20:48 10° WSW 18:30:19 27° SSW 18:45:02 10° SSE visible
31 Mar - 20:49:59 10° SW 21:01:53 19° S 21:16:02 10° SE visible
31 Mar - 23:18:28 10° SSW 23:36:42 27° SSE 23:52:49 10° ESE visible
01 Apr - 01:44:45 10° SW 02:06:56 56° SSE 02:20:48 10° ENE visible
01 Apr - 04:13:28 10° WSW 04:31:41 59° NW 04:41:36 10° NE visible
01 Apr - 06:50:57 10° NW 06:53:27 11° NW 06:55:41 10° NNW daylight
01 Apr - 14:00:27 10° NNW 14:05:29 34° NE 14:13:24 10° ESE daylight
01 Apr - 16:19:20 10° WNW 16:26:41 51° SSW 16:40:13 10° SE daylight
01 Apr - 18:43:45 10° WSW 18:53:08 22° SSW 19:06:38 10° SSE visible
01 Apr - 21:13:16 10° SSW 21:25:58 19° S 21:40:26 10° SE visible
01 Apr - 23:40:06 10° SSW 23:59:58 33° SSE 00:16:30 10° E visible
02 Apr - 02:06:21 10° SW 02:28:56 70° SE 02:42:28 10° ENE visible
02 Apr - 04:36:24 10° WSW 04:52:47 43° NW 05:02:11 10° NNE visible
02 Apr - 14:20:55 10° NW 14:26:22 56° NE 14:35:46 10° ESE daylight
02 Apr - 16:41:05 10° W 16:48:33 37° SSW 17:01:32 10° SE daylight
02 Apr - 19:07:09 10° SW 19:16:17 19° S 19:28:38 10° SSE visible
02 Apr - 21:35:55 10° SSW 21:50:02 20° SSE 22:05:24 10° SE visible
